Back to catalog

ATLAS 5 CENTAUR DEB

AliveHEO
NORAD 46660·DEBRIS·🇺🇸 United States

Launched Oct 17, 2018 from Cape Canaveral Space Force Station

Loading…

Next Passes (next 24 hours)

TLE

FreshSource: Space-Track

Epoch: Sep 13, 2026, 06:05 UTC

1 46660U 18079CN  26256.25406468 -.00000175  00000-0  00000-0 0  9997
2 46660  13.3689  33.6800 4594020 317.4241  14.8488  1.81071963 13564

Track ATLAS 5 CENTAUR DEB in real time with AllMySat

Download on the App Store